| time (UTC) | temp C | wind direction | speed KPH | gust KPH | rain 1hr cm | rain 24hr cm | rain mn cm | humidity % | barometer mb |
| 20260507060021 | 11 | 289 | 3.2 | 8.0 | 0.00 | 0.48 | 0.03 | 82 | 1006.0 |
| 20260507054522 | 11 | 360 | 4.8 | 11.3 | 0.00 | 0.48 | 0.03 | 81 | 1006.3 |
| 20260507053004 | 11 | 335 | 6.4 | 19.3 | 0.00 | 0.48 | 0.03 | 80 | 1006.4 |
| 20260507051509 | 11 | 285 | 4.8 | 16.1 | 0.03 | 0.48 | 0.03 | 82 | 1006.2 |
| 20260507050033 | 11 | 325 | 8.0 | 14.5 | 0.03 | 0.48 | 0.03 | 82 | 1006.8 |
| 20260507044513 | 11 | 293 | 6.4 | 17.7 | 0.08 | 0.48 | 0.03 | 83 | 1006.3 |
| 20260507043003 | 12 | 349 | 4.8 | 22.5 | 0.08 | 0.48 | 0.03 | 84 | 1006.5 |
| 20260507041511 | 12 | 9 | 8.0 | 16.1 | 0.05 | 0.46 | 0.00 | 86 | 1006.4 |
| 20260507040010 | 13 | 305 | 4.8 | 16.1 | 0.05 | 0.46 | 0.00 | 88 | 1006.2 |
| 20260507034513 | 13 | 285 | 3.2 | 19.3 | 0.00 | 0.41 | 0.41 | 85 | 1006.1 |
| 20260507033014 | 14 | 23 | 4.8 | 19.3 | 0.00 | 0.41 | 0.41 | 85 | 1005.8 |
| 20260507031507 | 14 | 360 | 3.2 | 19.3 | 0.00 | 0.41 | 0.41 | 88 | 1005.4 |
| 20260507030008 | 15 | 293 | 12.9 | 22.5 | 0.00 | 0.41 | 0.41 | 93 | 1005.2 |
| 20260507024515 | 15 | 262 | 4.8 | 8.0 | 0.00 | 0.41 | 0.41 | 93 | 1005.2 |
| 20260507023016 | 15 | 266 | 6.4 | 14.5 | 0.00 | 0.41 | 0.41 | 93 | 1005.0 |
| 20260507021523 | 15 | 269 | 4.8 | 9.7 | 0.00 | 0.41 | 0.41 | 92 | 1004.9 |
| 20260507020008 | 15 | 271 | 4.8 | 11.3 | 0.00 | 0.41 | 0.41 | 92 | 1004.7 |
| 20260507014511 | 15 | 226 | 4.8 | 9.7 | 0.00 | 0.41 | 0.41 | 92 | 1004.8 |
| 20260507013016 | 15 | 197 | 6.4 | 14.5 | 0.00 | 0.41 | 0.41 | 92 | 1004.8 |
| 20260507011523 | 15 | 213 | 6.4 | 16.1 | 0.00 | 0.41 | 0.41 | 92 | 1004.9 |
| 20260507010030 | 15 | 219 | 8.0 | 16.1 | 0.00 | 0.41 | 0.41 | 93 | 1004.9 |
| 20260507004512 | 15 | 181 | 3.2 | 12.9 | 0.00 | 0.41 | 0.41 | 93 | 1004.8 |
| 20260507003016 | 15 | 240 | 6.4 | 16.1 | 0.00 | 0.41 | 0.41 | 93 | 1004.8 |
| 20260507001518 | 15 | 205 | 4.8 | 12.9 | 0.00 | 0.41 | 0.41 | 92 | 1004.6 |
| 20260507000025 | 15 | 232 | 4.8 | 17.7 | 0.03 | 0.41 | 0.41 | 93 | 1004.7 |
| 20260506234524 | 15 | 238 | 6.4 | 14.5 | 0.08 | 0.41 | 0.41 | 92 | 1004.7 |
| 20260506233014 | 15 | 190 | 8.0 | 16.1 | 0.13 | 0.41 | 0.41 | 92 | 1004.6 |
| 20260506231520 | 15 | 196 | 6.4 | 17.7 | 0.15 | 0.41 | 0.41 | 92 | 1004.6 |
| 20260506230024 | 15 | 229 | 6.4 | 11.3 | 0.13 | 0.38 | 0.38 | 92 | 1004.7 |
| 20260506224524 | 15 | 211 | 4.8 | 19.3 | 0.10 | 0.33 | 0.33 | 92 | 1004.8 |
| 20260506223024 | 15 | 271 | 6.4 | 16.1 | 0.10 | 0.28 | 0.28 | 91 | 1004.6 |
| 20260506221516 | 15 | 193 | 6.4 | 17.7 | 0.08 | 0.25 | 0.25 | 91 | 1004.8 |
| 20260506220022 | 15 | 220 | 12.9 | 24.1 | 0.08 | 0.25 | 0.25 | 90 | 1004.8 |
| 20260506214522 | 15 | 221 | 6.4 | 27.4 | 0.08 | 0.23 | 0.23 | 90 | 1004.9 |
| 20260506213025 | 15 | 148 | 9.7 | 25.7 | 0.05 | 0.18 | 0.18 | 89 | 1004.8 |
| 20260506211538 | 15 | 169 | 8.0 | 24.1 | 0.05 | 0.18 | 0.18 | 90 | 1005.1 |
| 20260506210031 | 15 | 271 | 6.4 | 30.6 | 0.08 | 0.18 | 0.18 | 89 | 1005.3 |
| 20260506204531 | 15 | 225 | 11.3 | 20.9 | 0.05 | 0.15 | 0.15 | 89 | 1005.4 |
| 20260506203007 | 16 | 252 | 8.0 | 22.5 | 0.03 | 0.13 | 0.13 | 89 | 1005.5 |
| 20260506201511 | 16 | 248 | 11.3 | 25.7 | 0.03 | 0.13 | 0.13 | 87 | 1005.4 |
| 20260506200018 | 16 | 221 | 8.0 | 24.1 | 0.03 | 0.10 | 0.10 | 85 | 1005.6 |
| 20260506194522 | 16 | 210 | 9.7 | 19.3 | 0.05 | 0.10 | 0.10 | 84 | 1005.7 |
| 20260506193003 | 17 | 221 | 8.0 | 19.3 | 0.10 | 0.10 | 0.10 | 84 | 1005.6 |
| 20260506191511 | 17 | 210 | 11.3 | 20.9 | 0.10 | 0.10 | 0.10 | 85 | 1005.7 |
| 20260506190016 | 17 | 205 | 1.6 | 12.9 | 0.08 | 0.08 | 0.08 | 84 | 1005.5 |
| 20260506184520 | 17 | 260 | 8.0 | 20.9 | 0.05 | 0.05 | 0.05 | 81 | 1005.9 |
| 20260506183024 | 18 | 270 | 6.4 | 17.7 | 0.00 | 0.00 | 0.00 | 76 | 1005.9 |
| 20260506181526 | 20 | 266 | 9.7 | 29.0 | 0.00 | 0.00 | 0.00 | 66 | 1006.0 |
| 20260506180014 | 21 | 239 | 19.3 | 30.6 | 0.00 | 0.00 | 0.00 | 60 | 1005.9 |
| 20260506174515 | 21 | 239 | 16.1 | 32.2 | 0.00 | 0.00 | 0.00 | 56 | 1005.8 |
| 20260506173038 | 22 | 233 | 16.1 | 30.6 | 0.00 | 0.00 | 0.00 | 54 | 1005.8 |
| 20260506171537 | 22 | 276 | 12.9 | 30.6 | 0.00 | 0.00 | 0.00 | 55 | 1005.7 |
| 20260506170011 | 22 | 262 | 11.3 | 35.4 | 0.00 | 0.00 | 0.00 | 56 | 1005.8 |
| 20260506164517 | 21 | 237 | 9.7 | 25.7 | 0.00 | 0.00 | 0.00 | 57 | 1006.0 |
| 20260506163027 | 21 | 195 | 22.5 | 45.1 | 0.00 | 0.00 | 0.00 | 57 | 1006.2 |
| 20260506161526 | 21 | 217 | 9.7 | 25.7 | 0.00 | 0.00 | 0.00 | 60 | 1006.5 |
| 20260506160011 | 21 | 244 | 14.5 | 22.5 | 0.00 | 0.00 | 0.00 | 61 | 1006.9 |
| 20260506154514 | 20 | 252 | 8.0 | 27.4 | 0.00 | 0.00 | 0.00 | 62 | 1007.3 |
| 20260506153023 | 20 | 227 | 6.4 | 25.7 | 0.00 | 0.00 | 0.00 | 64 | 1007.7 |
| 20260506151524 | 20 | 252 | 16.1 | 29.0 | 0.00 | 0.00 | 0.00 | 64 | 1007.8 |
| 20260506150027 | 20 | 241 | 19.3 | 29.0 | 0.00 | 0.00 | 0.00 | 63 | 1007.9 |
| 20260506144514 | 20 | 219 | 9.7 | 25.7 | 0.00 | 0.00 | 0.00 | 64 | 1008.0 |
| 20260506143024 | 20 | 288 | 14.5 | 30.6 | 0.00 | 0.00 | 0.00 | 65 | 1008.0 |
| 20260506141520 | 19 | 255 | 11.3 | 27.4 | 0.00 | 0.00 | 0.00 | 67 | 1007.9 |
| 20260506140025 | 19 | 187 | 14.5 | 24.1 | 0.00 | 0.00 | 0.00 | 68 | 1007.5 |
| 20260506134528 | 18 | 230 | 12.9 | 22.5 | 0.00 | 0.00 | 0.00 | 69 | 1007.7 |
| 20260506133015 | 18 | 251 | 12.9 | 19.3 | 0.00 | 0.00 | 0.00 | 71 | 1008.0 |
| 20260506131518 | 18 | 231 | 12.9 | 25.7 | 0.00 | 0.00 | 0.00 | 71 | 1008.3 |
| 20260506130022 | 17 | 255 | 11.3 | 22.5 | 0.00 | 0.00 | 0.00 | 72 | 1008.3 |
| 20260506124526 | 17 | 172 | 12.9 | 24.1 | 0.00 | 0.00 | 0.00 | 72 | 1008.4 |
| 20260506123028 | 17 | 203 | 12.9 | 25.7 | 0.00 | 0.00 | 0.00 | 73 | 1008.1 |
| 20260506121517 | 17 | 236 | 8.0 | 24.1 | 0.00 | 0.00 | 0.00 | 1008.3 | |
| 20260506120020 | 17 | 266 | 11.3 | 20.9 | 0.00 | 0.00 | 0.00 | 74 | 1008.4 |
| 20260506114528 | 16 | 238 | 11.3 | 19.3 | 0.00 | 0.00 | 0.00 | 76 | 1008.6 |
| 20260506113010 | 16 | 288 | 6.4 | 17.7 | 0.00 | 0.00 | 0.00 | 76 | 1008.6 |
| 20260506111513 | 16 | 205 | 6.4 | 19.3 | 0.00 | 0.00 | 0.00 | 76 | 1008.7 |
| 20260506110020 | 16 | 199 | 11.3 | 20.9 | 0.00 | 0.00 | 0.00 | 76 | 1008.6 |
| 20260506104511 | 15 | 273 | 8.0 | 17.7 | 0.00 | 0.00 | 0.00 | 77 | 1008.8 |
| 20260506103008 | 15 | 212 | 9.7 | 16.1 | 0.00 | 0.00 | 0.00 | 77 | 1008.6 |
| 20260506101512 | 15 | 229 | 6.4 | 19.3 | 0.00 | 0.00 | 0.00 | 76 | 1008.3 |
| 20260506100020 | 15 | 232 | 8.0 | 20.9 | 0.00 | 0.00 | 0.00 | 76 | 1008.7 |
| 20260506094532 | 15 | 258 | 8.0 | 20.9 | 0.00 | 0.00 | 0.00 | 75 | 1008.6 |
| 20260506093007 | 16 | 174 | 6.4 | 19.3 | 0.00 | 0.00 | 0.00 | 75 | 1008.3 |
| 20260506091510 | 16 | 251 | 9.7 | 20.9 | 0.00 | 0.00 | 0.00 | 74 | 1008.6 |
| 20260506090016 | 16 | 239 | 9.7 | 22.5 | 0.00 | 0.00 | 0.00 | 74 | 1008.5 |
| 20260506084522 | 16 | 231 | 12.9 | 22.5 | 0.00 | 0.00 | 0.00 | 73 | 1008.4 |
| 20260506083037 | 16 | 243 | 8.0 | 19.3 | 0.00 | 0.00 | 0.00 | 73 | 1008.5 |
| 20260506081509 | 16 | 221 | 6.4 | 20.9 | 0.00 | 0.00 | 0.00 | 72 | 1008.4 |
| 20260506073024 | 17 | 230 | 4.8 | 19.3 | 0.00 | 0.00 | 0.00 | 69 | 1008.5 |
| 20260506071526 | 17 | 246 | 8.0 | 20.9 | 0.00 | 0.00 | 0.00 | 68 | 1008.3 |
| 20260506061526 | 17 | 236 | 11.3 | 24.1 | 0.00 | 0.00 | 0.00 | 64 | 1008.2 |